Вернуться в каталог

FENGYUN 1C DEB

АктивенPO
NORAD 32418·DEBRIS·🇨🇳 China

Запущен May 10, 1999 с Taiyuan Satellite Launch Center

Loading…

Ближайшие Пролёты (ближайшие 24 часа)

TLE

УстаревшееSource: Space-Track

Эпоха: Sep 2, 2026, 08:41 UTC

1 32418U 99025DAE 26245.36197075  .00002530  00000-0  12947-2 0  9995
2 32418  98.1893  95.5580 0223507   9.7395 350.8001 14.04230796666878

Отслеживайте FENGYUN 1C DEB в реальном времени с AllMySat

Download on the App Store